Back to catalog

FENGYUN 1C DEB

AlivePO
NORAD 31282·DEBRIS·🇨🇳 China

Launched May 10, 1999 from Taiyuan Satellite Launch Center

Loading…

Next Passes (next 24 hours)

TLE

FreshSource: Space-Track

Epoch: Sep 14, 2026, 03:09 UTC

1 31282U 99025BNQ 26257.13138922  .00000280  00000-0  89722-4 0  9994
2 31282  99.2306 202.2924 0126771 193.8275 165.9429 14.43844072 10843

Track FENGYUN 1C DEB in real time with AllMySat

Download on the App Store